TURKSAT 4B

Last updated on Sept. 20, 2020, 5:45 a.m. UTC

1 40984U 15060A   20263.75604872  .00000100  00000-0  00000+0 0  9999
2 40984   0.0056 267.4423 0001753 268.7067 145.1508  1.00268593 18083
UTC
Height (km)
Latitude
Longitude
Inclination
Orbital Period
UTC large
Height (km)
Speed (km/s)
/
Latitude / Longitude
Inclination (degrees)
Orbital Period (minutes)
Azimuth
Elevation
Range (km)
Doppler Factor
iOS Compass Heading
iOS Angle

Next 30 passes for location: Hong Kong

Rise time Rise Azimuth (degrees) Set time Set Azimuth (degrees) Duration Max altitude (degrees)

No matching passes for this satellites